Tracking 28915 objects as of 29-May-2024
HD Live streaming from Space Station
objects crossing your sky now

STARLINK-31671

Track STARLINK-31671 now!
10-day predictions


NORAD ID: 59516
Int'l Code: 2024-073F
Perigee: 449.9 km
Apogee: 452.6 km
Inclination: 43.0 °
Period: 93.5 minutes
Semi major axis: 6822 km
RCS: Unknown
Launch date: April 17, 2024
Source: United States (US)
Launch site: AIR FORCE EASTERN TEST RANGE (AFETR)
Your satellite tracking list
Your tracking list is empty




NASA's NSSDC Master Catalog

Two Line Element Set (TLE):
1 59516U 24073F   24150.33334491  .00050693  00000-0  12139-2 0  9995
2 59516  43.0012  58.3743 0001954 274.1827  32.1505 15.40670934  6098
Source of the keplerian elements: AFSPC